Wind_Speed
14 13 11 12 13 14 15 16 17 18 19 20 21 22 22 23 23 22 22 22 23 24 24 24 24 23 22 22 21 21 20 19 18 18 16 14 15 16 16 15 13 12 12 10 10 10 8 6 6 10 9 8 8 9 12 14 15 14 8 5 8 8 10 10 7 7 9 11 10 9 8 4 6 5 4 4 2 3 3 5 7 10 13 14 13 12 13 17
14 14 12 11 12 13 15 16 17 18 19 20 20 21 22 22 22 21 21 21 21 21 21 21 21 21 21 21 21 20 20 19 19 18 15 15 15 16 18 16 14 13 13 11 12 11 8 7 9 11 10 9 10 13 14 14 14 11 4 5 9 8 12 11 8 9 9 9 9 10 9 4 4 3 4 4 2 2 4 5 6 9 13 15 15 13 14 16
15 15 13 12 12 13 14 15 16 18 18 19 19 19 20 21 21 20 20 19 18 18 18 18 18 19 19 20 20 20 19 18 19 17 16 16 15 16 18 17 15 14 14 13 13 12 9 10 12 11 11 10 11 14 13 12 12 9 6 6 10 11 14 15 11 9 9 10 10 10 8 5 2 1 4 4 4 4 4 6 7 9 11 13 16 15 15 16
16 16 15 13 12 13 14 15 16 17 17 17 17 18 19 20 20 19 17 16 15 15 16 15 15 16 17 18 18 18 17 17 17 16 17 17 14 17 19 17 17 16 16 15 14 13 11 13 13 12 12 8 10 13 9 11 11 7 6 7 12 13 13 16 14 12 12 11 10 10 8 5 2 3 7 5 5 5 4 7 9 10 9 11 15 15 14 15
17 16 16 14 13 13 13 14 15 16 16 16 16 17 18 19 19 17 14 13 13 13 12 11 12 12 14 15 15 16 14 13 15 16 18 17 14 17 19 18 18 17 17 16 16 14 13 14 13 11 10 7 11 12 7 12 13 8 8 11 13 12 13 16 15 13 13 12 11 10 7 5 3 6 9 7 6 6 6 9 10 11 10 10 14 15 14 14
17 17 17 16 14 13 13 14 14 15 15 15 15 17 17 17 17 14 12 12 12 12 12 11 11 11 12 13 13 14 14 12 14 18 19 17 15 18 21 20 19 18 17 18 17 15 15 14 11 8 8 9 12 10 9 14 14 10 12 14 14 13 15 16 15 14 14 13 12 9 7 6 5 7 8 6 7 6 6 8 11 13 14 14 15 15 14 14
18 17 17 17 15 13 13 13 14 14 15 15 15 17 17 16 14 13 12 12 12 13 13 12 12 12 11 12 13 14 17 15 14 19 20 17 16 20 23 21 20 19 18 18 17 16 16 12 9 9 10 12 13 12 13 15 13 10 13 16 15 15 16 15 15 15 15 13 11 10 9 8 7 7 6 5 6 6 6 7 10 13 16 18 18 16 15 14
18 18 17 17 16 14 13 13 13 14 14 15 16 17 16 14 13 12 12 12 13 14 14 14 13 13 12 12 13 14 18 17 15 19 19 17 16 20 24 23 21 20 19 19 17 17 16 11 10 11 10 12 14 14 14 13 10 11 15 17 17 16 15 15 16 16 14 12 10 10 10 9 8 7 7 6 7 7 7 7 8 12 16 17 18 16 15 13
19 18 18 17 16 15 13 12 12 14 15 15 16 16 15 13 12 12 12 12 13 13 13 13 13 14 13 13 14 15 18 17 16 19 19 17 17 20 24 24 22 21 19 18 19 20 16 11 12 13 12 15 16 16 15 11 10 14 16 17 16 15 15 16 16 15 14 12 10 10 10 9 8 7 8 8 8 8 8 9 9 10 12 14 14 14 13 13
20 19 18 17 16 15 14 12 12 14 15 15 15 15 14 12 11 11 10 10 11 12 12 11 11 13 14 15 15 15 19 19 17 20 19 17 18 21 25 24 23 20 18 19 21 21 16 11 14 16 16 18 19 18 14 8 10 17 17 17 15 15 15 16 17 15 14 14 11 12 13 11 10 8 9 10 10 9 9 10 10 10 10 12 13 12 13 13
21 19 18 17 16 15 13 12 13 14 15 14 15 14 13 11 10 9 8 9 10 11 10 8 9 12 14 15 16 16 20 20 18 21 19 16 19 23 25 24 23 20 19 20 22 22 17 13 14 16 15 17 19 19 15 10 12 17 18 17 15 15 15 15 16 15 14 14 14 14 15 13 11 10 10 10 11 10 9 10 11 11 10 11 11 12 12 11
21 19 18 17 16 15 13 12 13 14 15 14 15 14 13 11 9 8 6 7 9 9 7 5 7 11 14 16 19 20 22 21 20 22 19 16 21 24 25 24 23 22 20 20 22 22 17 14 16 15 14 16 17 18 17 14 13 14 16 16 15 15 14 14 14 13 13 14 15 14 14 14 11 11 11 10 11 11 10 9 11 11 11 11 10 11 11 11
22 20 18 17 16 15 13 12 13 14 14 14 14 14 12 10 8 6 6 6 7 7 4 3 7 11 14 17 21 23 24 23 23 23 20 17 20 24 25 24 24 23 22 20 22 23 17 15 17 16 17 19 18 16 17 17 14 13 13 14 15 14 12 13 13 12 13 12 13 11 10 11 9 10 12 11 12 12 10 9 9 10 10 10 10 10 10 11
22 21 18 17 16 15 13 12 13 14 13 13 14 13 12 10 7 6 6 5 5 4 2 2 7 12 16 19 22 23 24 24 25 25 22 18 18 23 25 25 24 22 23 22 23 22 17 16 16 15 20 22 20 18 18 18 15 13 13 13 14 12 12 14 13 12 11 8 11 9 7 9 9 10 11 13 13 12 11 8 8 8 9 9 10 10 10 10
21 21 18 16 16 16 14 12 13 14 13 13 14 13 12 10 7 6 6 6 4 3 2 3 7 13 17 19 23 25 25 25 27 26 24 20 18 22 26 25 23 21 23 23 23 22 18 16 14 13 18 21 19 18 17 16 13 14 15 15 13 10 12 14 14 13 10 7 8 7 6 8 9 10 9 12 15 14 11 9 7 7 9 9 10 10 9 10
21 21 19 17 16 16 15 13 13 13 12 12 13 13 12 10 8 6 7 7 5 4 3 3 7 13 14 17 23 26 25 26 28 28 26 23 22 24 26 24 21 20 23 23 23 22 18 16 15 14 18 19 18 16 16 14 13 16 15 14 15 11 13 14 15 13 10 8 6 4 5 7 8 9 9 11 16 16 12 9 9 8 9 10 10 10 10 10
20 21 19 17 16 16 15 14 13 13 12 11 12 13 12 11 9 7 7 8 7 5 4 4 7 12 13 17 23 25 26 26 27 28 26 25 25 26 26 23 21 20 22 24 23 22 18 16 15 16 17 17 16 16 16 15 15 17 14 14 16 13 12 13 14 15 13 10 6 4 5 7 8 8 8 9 14 17 14 10 10 9 9 10 10 10 11 11
20 21 19 17 16 16 16 15 14 12 11 11 11 12 12 11 10 8 8 9 9 6 4 5 9 11 11 16 23 25 27 26 26 27 26 26 27 28 27 23 21 22 23 23 24 22 18 15 14 14 15 16 17 17 17 15 15 18 16 14 15 13 12 12 12 14 14 11 7 5 6 8 9 9 8 9 12 16 16 12 10 10 10 10 11 11 11 11
20 21 19 17 16 16 16 16 15 12 10 10 11 11 12 12 11 10 10 10 11 8 4 5 11 9 8 15 24 27 27 26 26 26 27 28 29 29 28 23 20 22 23 23 24 21 16 15 15 15 17 18 18 19 16 12 13 17 17 15 15 14 13 11 10 13 14 12 9 7 7 10 10 9 9 9 11 14 17 16 13 12 11 10 10 11 12 12
20 21 19 17 16 16 16 17 16 13 10 9 10 10 11 11 9 9 12 12 12 12 8 8 10 7 8 14 23 27 26 26 27 27 27 29 29 28 26 23 21 21 21 21 22 22 18 16 18 17 18 18 18 18 14 9 11 16 17 15 13 14 13 12 11 13 13 11 10 9 8 11 11 10 11 10 11 13 15 17 16 14 13 12 11 11 12 12
20 20 20 17 15 16 16 17 17 14 11 9 9 9 11 11 10 10 13 14 12 13 12 11 10 9 10 16 22 27 28 26 28 28 29 29 28 26 25 25 23 22 22 19 19 25 23 18 19 19 16 16 17 16 13 10 11 14 16 14 13 13 11 13 14 14 14 11 10 11 9 11 12 12 13 12 12 13 14 15 16 16 14 12 11 11 12 12
20 19 19 17 16 15 16 17 17 15 12 10 8 8 10 12 12 13 13 14 15 15 15 13 12 11 12 16 22 28 29 28 29 30 29 30 28 24 23 25 23 21 22 19 17 23 24 20 20 18 15 16 17 16 14 11 12 14 15 14 14 12 10 13 16 15 14 12 9 11 11 12 14 14 14 15 14 14 15 16 17 17 16 13 11 10 11 11
19 18 19 17 16 15 16 17 17 16 13 11 8 7 9 11 13 14 13 14 15 16 16 14 12 13 13 16 21 27 29 28 30 32 30 30 28 22 22 25 23 20 22 22 19 20 22 21 19 17 18 19 18 19 16 12 13 14 14 14 14 13 13 14 16 18 16 13 10 12 12 13 16 18 17 17 17 16 16 17 18 18 18 16 13 12 12 12
18 17 18 17 16 15 15 16 17 16 14 12 9 7 7 10 12 13 14 13 14 16 16 13 14 16 15 15 20 26 28 27 30 33 31 30 29 25 23 24 21 19 21 23 21 19 19 19 19 19 21 20 18 20 19 15 14 14 15 15 12 14 16 13 15 19 17 14 13 13 12 13 17 19 19 20 20 18 17 18 18 19 20 18 17 15 14 14
17 16 17 17 15 14 15 16 16 16 15 13 10 7 6 8 10 12 12 11 12 15 15 14 16 18 16 14 18 24 25 26 28 31 32 29 28 26 23 22 21 19 21 22 21 19 16 18 21 22 21 20 19 20 20 17 16 15 17 18 15 13 14 14 16 17 15 15 16 15 12 11 15 18 19 21 22 21 19 19 19 19 20 20 20 18 17 16
17 15 16 17 16 14 14 15 16 16 15 14 11 7 6 6 8 10 10 8 9 12 15 16 16 16 16 14 18 23 22 24 27 30 32 31 28 24 21 23 22 18 20 21 19 18 15 17 22 22 22 21 20 19 19 18 16 13 13 17 18 16 14 16 19 18 15 14 16 19 14 8 11 16 19 22 24 23 22 20 20 20 20 20 20 20 18 17
16 15 15 17 16 14 13 14 15 16 15 14 11 8 6 5 5 7 6 7 9 11 15 18 17 16 18 16 20 24 19 25 31 31 33 32 29 25 20 23 22 18 20 21 17 16 16 19 23 23 22 20 20 18 17 18 16 10 9 14 18 17 15 17 18 18 14 10 11 17 15 10 10 13 17 22 25 25 25 23 22 22 21 20 19 20 19 18
16 15 14 16 17 15 13 14 15 16 15 14 12 9 6 4 4 3 3 5 6 10 15 20 18 18 20 18 21 21 12 20 29 29 33 31 27 25 18 20 21 19 24 23 15 16 18 21 23 23 22 19 18 15 15 17 14 7 8 13 13 12 13 13 15 14 11 10 12 13 13 12 12 12 13 18 23 26 28 26 25 25 23 22 21 21 21 20
17 15 14 15 17 16 14 14 15 16 15 14 12 10 6 3 2 3 4 6 4 8 14 19 19 20 22 19 24 20 10 16 21 25 32 29 27 27 19 19 19 17 24 21 11 14 20 22 22 21 20 18 16 15 16 17 12 9 10 12 11 11 10 10 11 10 8 12 15 13 14 13 12 11 11 15 21 23 25 25 26 27 25 24 23 22 22 22
17 15 14 15 16 17 15 14 15 16 15 14 12 11 7 3 3 6 7 5 3 7 14 18 18 22 23 21 26 22 14 17 18 23 30 26 26 27 21 21 20 15 20 17 9 13 21 22 22 22 20 16 16 17 17 16 13 12 12 12 11 10 8 7 8 8 8 12 15 13 14 14 12 10 11 16 18 16 17 21 24 26 27 27 26 25 24 24
17 15 14 14 15 16 15 14 15 16 15 14 13 11 7 4 6 9 7 6 5 6 13 19 19 23 24 24 26 22 17 19 20 24 31 27 25 26 22 23 21 15 17 16 12 15 19 19 20 24 22 17 16 16 18 17 14 12 13 13 11 8 7 7 7 8 8 9 10 11 12 14 14 13 10 11 14 12 12 17 20 21 24 27 28 27 26 25
18 16 15 15 15 15 16 16 16 16 14 14 13 10 8 7 10 12 7 6 7 6 12 18 21 23 24 23 24 23 20 21 22 25 30 27 25 26 23 22 22 19 18 19 16 16 17 17 19 23 22 18 16 17 19 18 14 13 13 14 12 8 7 8 7 8 9 7 6 8 10 13 17 18 16 13 13 14 13 14 17 18 19 22 26 29 28 26
18 17 15 15 15 15 16 16 16 16 14 13 12 10 9 10 11 13 11 7 5 6 9 15 19 22 23 23 23 23 21 21 25 25 26 25 23 24 23 20 22 20 18 20 20 18 16 14 18 21 20 20 18 17 19 17 16 16 16 16 14 8 6 7 7 7 10 8 6 7 8 11 16 17 18 17 16 18 17 15 17 19 20 21 24 28 30 28
18 17 15 15 15 15 16 17 16 16 15 13 12 10 11 13 11 11 13 9 5 5 7 13 18 19 22 23 21 24 22 20 25 25 25 26 23 25 25 22 24 20 14 18 21 20 17 13 19 22 19 22 21 17 17 16 17 18 16 16 16 11 9 7 5 8 10 5 6 7 8 10 12 11 12 13 13 16 17 16 18 19 21 22 23 26 30 30
18 17 16 14 15 16 16 16 17 16 16 14 13 12 14 16 12 9 11 9 6 4 5 12 18 18 22 22 19 24 23 19 24 25 24 27 25 25 26 24 27 23 15 16 17 17 15 11 19 23 18 21 22 18 17 15 16 17 14 15 15 13 12 8 5 7 9 5 6 9 9 11 12 12 13 12 11 12 14 15 17 19 22 25 25 27 31 32
17 17 16 15 15 16 16 17 17 17 17 15 15 16 18 17 11 5 7 9 7 5 5 11 16 18 22 22 19 24 24 18 23 25 23 26 25 24 25 23 26 27 19 17 15 15 15 9 15 23 21 22 22 19 20 17 12 14 16 17 15 12 10 9 7 5 8 9 5 8 11 13 13 13 13 11 10 10 11 12 14 17 21 25 27 28 31 33
15 17 17 15 15 15 16 17 17 18 18 17 18 19 19 17 13 8 5 8 8 7 6 9 16 20 21 21 21 25 24 19 23 25 23 25 24 24 25 22 24 28 23 18 14 14 16 11 13 21 22 23 24 21 23 21 12 11 15 17 17 14 10 10 8 5 8 9 4 7 12 12 10 8 5 6 7 7 9 11 13 16 19 22 26 30 31 31
14 16 17 16 16 15 16 17 18 19 18 18 20 21 19 18 17 15 11 9 8 6 6 8 12 18 19 20 22 25 26 22 23 26 23 23 23 22 25 23 23 27 25 20 16 14 17 13 13 19 20 21 23 21 21 23 19 15 12 12 16 14 11 12 9 6 6 7 5 6 9 11 11 7 2 4 7 8 11 13 12 15 16 18 22 28 31 30
13 15 16 16 16 15 16 17 18 19 19 20 21 21 21 21 19 19 17 13 9 7 7 7 7 13 17 19 20 23 28 25 23 26 24 22 21 20 24 24 22 26 26 22 19 15 16 15 12 18 21 20 21 21 19 20 23 22 14 12 16 13 9 11 10 8 6 6 6 4 5 9 10 6 2 3 6 8 10 11 10 12 13 15 18 24 29 29
12 13 15 16 16 15 16 18 19 21 22 22 20 18 21 23 20 19 18 15 12 9 8 6 5 9 14 16 17 20 26 26 23 25 24 21 19 16 21 24 21 23 25 24 21 16 16 18 12 15 20 20 19 21 21 18 20 23 19 16 17 14 10 9 9 9 8 7 6 4 5 5 4 2 3 4 6 8 8 7 8 10 11 13 15 19 25 27
12 12 14 16 16 16 18 19 20 23 23 21 19 19 23 24 20 19 19 18 16 12 10 9 7 7 10 14 16 17 23 26 24 23 22 21 20 17 20 24 23 23 25 25 24 19 17 18 15 13 17 20 19 21 23 20 19 22 22 20 18 16 13 10 9 9 9 9 6 5 8 5 1 3 7 5 6 8 7 6 6 7 9 11 13 14 19 24
11 10 13 16 16 16 19 19 20 23 22 19 20 21 23 23 20 19 17 16 16 14 13 13 11 9 9 11 13 15 20 24 23 23 22 21 21 19 18 21 23 25 25 24 24 23 19 17 17 15 14 16 18 21 24 23 21 21 20 19 18 17 17 14 9 7 8 8 7 7 9 7 6 8 8 7 8 8 8 7 6 6 8 11 13 14 16 19
13 13 14 15 16 17 18 17 19 24 22 20 22 23 22 22 20 19 17 16 14 12 13 14 12 11 10 10 10 13 18 21 22 23 21 19 20 19 18 19 20 21 22 20 22 25 23 18 18 16 13 14 17 20 25 25 24 23 21 19 18 17 17 16 10 6 7 8 8 8 8 7 8 8 7 8 9 7 9 8 6 6 7 10 13 14 16 18
13 14 15 15 16 18 19 16 16 20 21 20 22 21 20 21 21 19 18 17 15 12 12 13 11 11 12 12 11 12 16 17 18 21 19 17 20 22 21 20 19 19 19 18 19 25 24 20 20 16 11 12 14 15 21 24 25 23 20 20 21 17 15 14 10 8 11 12 10 9 10 7 5 6 9 9 8 7 10 8 7 7 7 9 11 12 14 17
13 13 14 15 17 19 21 19 16 15 16 19 20 18 17 17 19 20 19 19 18 17 15 12 12 12 13 14 12 13 16 14 13 18 19 16 19 22 22 22 21 20 20 18 19 22 22 21 23 20 13 12 12 14 17 20 23 24 21 21 23 21 18 17 13 11 13 13 13 14 14 9 6 9 11 9 7 8 10 10 9 9 10 11 11 12 14 15
12 12 12 14 17 21 22 23 22 17 13 16 16 16 15 13 15 19 20 19 20 21 19 15 14 13 13 15 13 13 17 15 11 15 17 15 17 20 21 21 22 22 22 21 20 20 21 22 25 25 20 17 16 17 19 19 20 23 24 25 25 24 21 19 16 14 14 12 15 19 20 16 14 12 9 8 9 9 12 14 13 13 14 14 14 15 16 17
12 13 14 15 16 19 21 23 25 20 17 17 15 15 14 12 13 16 17 18 19 20 20 18 16 12 11 13 13 12 16 17 14 15 15 14 15 17 18 19 21 23 23 22 20 20 21 22 24 27 25 21 17 17 20 20 19 21 23 24 25 24 22 21 19 17 16 14 15 16 18 21 21 16 11 10 10 11 14 16 15 15 16 17 18 18 18 20
12 14 16 17 16 17 19 22 26 24 22 20 17 16 13 9 11 14 15 18 19 19 18 15 15 16 13 14 16 13 13 16 17 16 15 15 15 15 14 16 18 20 21 23 23 21 20 19 21 24 24 23 23 22 22 20 18 19 20 20 22 23 24 23 21 19 19 17 14 11 13 20 22 16 13 12 13 16 17 18 18 18 19 19 20 21 20 21
12 14 15 18 19 18 19 22 25 24 23 22 20 19 15 11 12 14 15 16 16 19 19 13 15 20 18 17 17 14 12 15 16 16 17 16 16 15 13 13 15 17 20 23 25 25 21 17 18 20 19 22 27 27 23 19 17 19 19 19 20 20 21 21 18 19 21 19 16 17 19 23 24 21 21 21 21 21 20 20 20 20 21 22 22 22 22 22
11 14 15 17 19 20 18 19 21 20 20 21 19 19 19 17 15 14 15 15 13 17 21 18 19 22 20 19 18 15 15 16 15 16 19 18 16 16 15 11 11 14 18 20 23 25 22 16 17 18 15 17 23 24 21 18 16 17 17 17 17 17 17 18 17 18 21 19 18 20 22 24 24 24 26 25 23 22 20 18 17 18 21 22 23 23 22 22
10 13 15 16 17 19 17 17 19 16 14 17 18 18 19 19 17 15 15 16 16 18 20 21 21 22 21 21 21 20 19 19 15 16 19 19 18 18 17 14 13 13 15 17 19 22 21 15 15 18 16 14 17 19 17 15 14 15 16 16 17 17 16 16 17 19 19 16 14 16 18 18 16 18 23 24 22 22 22 19 17 18 20 21 23 23 22 23
8 11 14 15 15 17 17 16 17 14 13 17 19 19 18 17 17 16 14 15 18 18 19 20 20 20 20 22 24 23 21 20 19 17 17 18 19 19 18 18 17 15 14 15 17 19 20 18 15 17 17 14 14 15 14 14 13 14 17 18 18 17 15 15 16 18 18 15 13 13 15 14 13 17 22 21 20 20 22 21 20 19 20 21 22 21 21 22
Wind_Direction
326 323 305 285 275 272 274 277 279 281 282 283 285 287 288 287 287 285 281 277 272 268 265 263 261 258 256 252 249 246 243 240 237 239 239 234 226 220 217 215 206 203 209 210 222 231 225 217 190 179 156 132 135 135 133 127 123 112 98 119 102 90 107 110 118 106 106 129 143 132 126 104 70 58 54 56 82 111 135 150 150 146 143 137 130 130 119 113
325 325 315 296 283 277 277 278 280 281 283 286 289 291 292 291 289 286 281 277 273 269 266 263 261 257 254 251 247 244 241 237 233 234 232 228 223 214 210 208 201 201 204 206 216 219 216 203 184 177 150 132 136 130 131 128 118 112 106 104 92 97 113 115 119 109 114 134 140 130 126 121 81 29 40 67 101 129 155 158 154 146 144 137 129 131 124 119
324 325 321 307 292 284 281 280 281 283 286 290 293 293 293 292 290 286 281 278 274 270 267 265 261 256 253 249 246 242 239 235 231 229 224 222 220 210 205 201 196 196 198 199 207 210 207 186 181 179 148 134 141 134 133 124 111 109 104 96 103 113 121 126 127 120 121 128 133 129 131 134 110 47 84 101 100 105 165 159 149 143 142 139 131 132 131 125
324 324 323 314 300 292 286 283 284 287 290 293 295 294 293 293 290 286 283 279 274 271 269 266 261 255 250 247 243 239 234 232 229 222 218 219 214 205 197 193 191 192 195 195 201 203 194 180 182 178 149 140 155 144 137 128 118 104 86 104 118 116 124 132 131 127 121 121 126 126 132 131 130 123 102 97 94 101 172 173 153 136 137 142 135 134 134 129
323 323 323 318 308 299 293 289 289 291 294 296 297 295 294 294 290 286 284 278 273 271 269 266 260 252 246 242 237 232 223 224 227 213 211 214 207 199 190 187 188 192 196 194 198 195 184 180 180 172 150 159 164 150 149 133 119 109 106 121 124 117 127 133 130 128 122 119 121 122 127 127 154 137 107 110 126 129 170 180 167 140 133 143 139 136 136 132
322 323 323 320 312 304 298 294 293 295 297 298 299 297 298 295 289 285 281 276 273 273 272 268 261 250 243 235 227 219 201 205 216 203 205 209 201 193 186 185 189 194 197 194 194 186 182 180 175 175 167 172 167 156 159 133 113 115 124 124 122 121 128 130 128 123 117 116 118 122 124 127 152 138 111 116 124 122 144 172 180 154 137 140 140 139 141 138
321 321 322 320 314 305 300 296 296 297 298 300 301 301 301 295 288 284 280 278 277 277 274 268 261 250 242 229 219 207 194 199 201 194 200 202 195 190 186 186 191 196 196 192 189 184 183 180 180 189 179 173 168 163 160 135 116 125 130 127 125 125 129 130 126 119 116 116 117 119 115 121 145 139 120 107 92 92 114 151 177 161 143 142 144 146 149 147
321 320 320 319 314 305 299 297 296 296 298 300 302 303 302 294 286 283 282 284 282 279 275 269 259 247 236 223 212 199 194 198 193 191 196 194 191 189 187 188 192 195 193 189 187 186 184 182 189 183 175 178 172 163 156 136 125 135 134 130 127 128 130 127 121 119 118 112 110 113 111 124 146 146 128 109 91 90 108 134 158 155 149 148 150 153 154 151
320 319 318 318 314 306 300 296 295 295 297 300 303 304 301 292 286 286 288 288 286 283 280 270 255 239 227 215 205 192 191 193 190 189 190 191 191 188 187 187 192 193 190 189 188 185 182 186 188 175 176 180 171 163 153 142 141 141 137 131 130 131 129 122 119 122 118 103 100 99 96 114 131 133 124 115 106 102 111 125 138 148 151 153 153 154 153 152
319 317 316 316 312 305 298 295 294 295 297 300 304 304 301 292 287 290 292 291 289 290 288 272 248 228 216 206 194 189 189 187 186 184 183 191 190 186 185 186 193 193 189 191 190 186 182 187 186 178 179 175 168 163 153 156 157 144 137 134 135 132 126 125 126 128 118 102 97 97 96 103 109 115 122 122 119 111 112 121 128 141 149 152 156 157 156 154
319 316 315 314 310 303 297 292 293 295 297 300 303 303 300 292 287 293 293 288 292 298 295 269 235 212 205 194 183 186 188 183 180 179 179 183 183 182 182 186 192 189 187 191 191 188 183 182 180 176 177 172 168 164 156 162 158 145 140 138 139 136 129 131 135 134 123 106 98 98 95 94 102 114 124 128 126 120 117 122 123 130 140 149 157 159 158 156
318 315 313 312 307 301 294 290 292 294 297 300 301 302 299 290 286 292 284 282 296 304 298 257 216 199 192 186 182 184 183 181 178 176 176 172 172 176 178 184 186 181 183 190 193 189 182 177 168 164 171 169 165 166 162 153 145 143 142 140 139 138 131 135 145 139 128 110 96 95 90 89 101 109 117 122 123 125 125 128 127 128 134 139 147 150 150 151
317 314 311 309 305 298 292 288 290 295 297 299 300 299 296 287 283 284 268 275 299 306 301 226 195 185 178 182 186 182 178 179 177 176 177 167 166 173 176 179 178 177 179 184 193 190 180 174 167 166 170 165 162 169 165 151 145 145 149 152 144 144 144 150 160 146 138 119 90 89 90 94 103 99 110 119 119 125 127 132 137 136 139 139 142 145 146 147
317 314 309 307 302 294 289 285 289 295 296 297 297 296 293 282 277 276 254 257 289 304 305 180 175 176 176 180 183 180 177 178 177 176 178 170 166 172 174 174 175 178 180 182 191 189 180 174 170 170 172 171 168 168 163 154 153 153 161 172 161 161 164 164 170 153 154 143 91 79 86 105 111 96 106 119 116 122 128 137 145 144 147 147 146 147 148 148
317 315 308 304 299 292 287 282 287 294 295 296 295 294 289 279 273 266 245 241 258 271 251 169 169 174 177 181 181 179 178 177 178 178 181 176 170 173 173 173 175 178 182 185 188 187 183 172 163 166 173 176 171 162 161 158 162 171 175 177 175 177 166 171 182 164 168 170 108 81 91 120 122 99 103 117 116 123 132 142 150 152 154 150 149 149 149 152
316 315 308 302 297 290 285 280 285 292 294 294 293 292 286 276 268 253 240 233 230 233 211 179 179 173 172 184 185 180 179 179 179 180 182 180 175 175 174 174 177 178 181 186 189 188 183 171 163 169 173 173 172 166 167 170 173 186 190 179 180 185 169 180 195 181 182 182 148 111 119 137 136 109 105 118 117 124 139 145 147 154 158 156 154 153 155 156
315 315 307 299 294 288 283 279 283 291 293 292 291 290 285 274 263 248 237 225 217 211 195 195 189 175 178 189 186 183 182 181 181 181 184 184 179 177 177 178 179 179 181 185 189 189 184 174 166 171 174 173 180 180 183 189 182 189 200 184 182 188 177 184 196 195 196 184 175 172 149 154 152 124 114 125 122 125 138 147 147 152 158 161 160 160 163 162
313 314 306 297 291 285 281 278 282 291 292 292 290 287 285 274 260 248 232 223 217 201 206 220 183 173 192 192 185 187 185 181 183 182 183 185 180 178 180 182 182 178 180 185 191 190 185 178 170 176 184 184 189 191 196 199 189 191 197 186 185 190 186 187 192 201 202 189 185 185 170 165 161 146 129 135 135 131 139 150 155 159 162 164 163 163 166 166
310 312 305 294 288 282 279 277 280 290 292 291 290 286 285 275 262 250 231 223 217 198 212 217 176 173 212 200 191 189 184 182 182 181 181 181 180 180 181 184 184 178 178 185 192 192 185 182 182 186 190 191 194 199 207 208 198 198 195 189 190 191 195 192 194 205 200 195 201 194 181 177 174 169 152 147 152 144 142 151 158 163 168 170 168 167 168 169
306 308 304 292 285 279 275 275 278 287 293 291 289 284 282 275 266 253 232 223 216 201 203 209 194 204 225 207 197 189 184 182 179 177 178 179 180 181 182 184 181 179 181 185 192 195 190 190 194 195 194 196 199 205 217 219 204 199 196 198 196 197 198 190 201 212 199 196 207 201 188 182 184 186 172 160 163 161 153 153 156 160 168 171 172 172 170 171
301 304 301 290 283 276 272 272 275 284 292 291 289 283 282 277 267 254 235 225 220 207 204 217 230 235 215 202 198 189 186 183 179 178 177 179 181 181 183 183 178 182 187 184 192 198 199 202 202 201 198 198 200 206 216 214 201 197 200 204 205 207 199 189 211 219 200 201 213 209 197 184 191 196 188 178 170 171 169 164 159 159 166 170 172 175 173 171
297 301 298 289 281 274 268 267 271 280 289 291 288 280 280 278 270 261 244 231 224 216 214 222 230 232 217 202 195 190 188 184 181 180 179 180 180 180 184 183 180 186 188 183 188 196 203 211 206 201 198 194 196 203 209 209 201 196 198 205 209 206 192 197 222 229 211 208 221 219 202 190 204 209 200 191 183 181 181 179 174 167 168 172 175 182 183 178
292 297 294 287 279 272 265 264 267 274 285 290 286 279 275 276 274 267 253 239 230 225 225 223 217 217 215 203 194 191 189 187 185 182 182 181 176 178 186 185 184 189 189 190 191 193 203 211 204 200 203 200 200 202 206 210 207 202 202 208 210 203 200 208 223 231 223 213 218 219 202 200 219 220 210 201 195 194 191 187 186 182 177 179 184 190 192 190
288 293 291 283 276 271 262 259 264 270 281 287 282 278 273 271 275 274 263 249 238 231 225 217 209 209 213 207 195 189 186 189 189 186 183 181 178 181 184 185 188 192 191 195 199 200 205 206 200 203 206 202 201 203 204 207 207 208 214 218 216 211 214 218 221 226 224 215 213 210 203 214 228 225 215 211 208 205 202 196 193 192 187 186 190 194 197 197
284 289 288 280 274 270 260 256 259 266 277 283 279 275 268 267 273 278 275 263 246 233 222 212 205 206 212 206 188 182 184 189 192 191 185 180 183 184 183 187 191 195 196 194 199 202 204 206 204 204 202 198 199 202 203 206 207 209 217 223 227 228 226 220 217 217 212 216 216 207 211 224 224 221 216 217 219 213 211 208 201 200 198 194 194 196 201 203
279 284 285 278 272 265 259 257 255 260 272 279 276 271 266 264 271 280 281 276 257 232 215 207 202 202 203 196 179 174 181 189 191 193 189 183 185 185 187 192 190 194 197 190 195 202 204 205 200 196 197 197 199 202 202 206 214 215 212 220 227 231 225 210 210 213 212 221 219 211 222 233 217 219 219 222 228 223 220 219 210 207 207 203 200 198 202 207
275 280 280 276 272 260 253 255 252 253 265 274 273 268 267 259 266 282 283 271 245 217 206 199 196 196 194 190 178 169 179 194 192 194 193 189 190 189 191 194 189 191 188 181 192 203 199 195 193 194 196 198 199 203 203 205 219 223 203 218 225 219 212 205 208 215 214 212 209 209 221 235 237 236 226 225 231 231 228 227 221 216 213 210 206 203 203 207
271 275 277 274 271 261 248 245 247 250 257 268 271 266 265 255 256 262 259 260 222 196 199 196 193 192 189 188 177 169 189 196 189 194 194 194 195 190 188 191 190 190 184 179 187 196 195 193 194 196 194 194 198 205 204 200 215 230 204 214 211 191 196 200 201 208 208 208 211 209 219 238 246 240 227 224 228 233 237 237 231 227 221 214 210 208 207 208
268 270 273 271 269 264 249 238 241 247 252 261 267 265 260 248 223 180 220 260 219 188 195 190 189 190 187 186 179 178 193 185 184 193 190 192 192 183 181 187 187 188 188 188 189 188 193 196 195 193 193 197 199 203 203 194 205 222 203 197 177 160 174 186 198 209 213 225 227 216 220 242 252 234 223 228 230 237 247 248 242 237 229 221 214 211 211 211
264 265 270 268 265 263 252 239 237 240 246 256 263 263 255 221 194 196 212 229 187 191 194 182 182 188 185 183 182 185 186 177 184 186 179 184 186 180 181 184 182 186 191 194 191 182 188 193 194 192 193 200 198 199 201 191 193 201 185 171 154 147 163 177 199 211 215 232 234 220 219 237 258 245 222 235 251 255 251 246 244 242 235 227 218 213 213 213
262 262 266 265 263 260 251 241 235 234 238 249 257 257 250 226 218 219 214 206 201 207 192 180 181 186 183 181 183 187 186 181 183 179 175 179 184 183 184 183 182 183 188 193 189 181 182 184 190 191 191 195 195 195 196 192 188 186 177 168 158 154 175 186 190 204 224 234 223 218 220 228 247 257 241 247 267 265 236 231 239 243 239 232 224 217 215 215
259 257 260 263 261 256 249 239 233 231 229 238 250 248 237 233 228 223 216 214 219 204 187 184 183 183 182 182 184 186 184 183 183 181 180 180 183 187 186 184 183 180 185 189 184 180 181 184 189 190 189 189 187 184 187 191 187 184 185 186 187 180 184 202 198 207 232 230 204 213 222 230 246 258 261 262 263 256 240 228 229 237 239 233 229 223 218 216
258 254 254 259 259 253 247 238 231 229 223 228 240 235 229 241 235 218 209 204 192 178 185 191 185 181 182 184 187 186 182 184 184 183 186 184 185 190 189 189 188 187 192 188 183 182 179 186 195 193 192 189 185 183 185 189 192 194 194 195 203 202 195 217 216 221 239 229 205 212 222 245 256 259 262 262 254 250 248 236 229 232 234 230 225 225 223 220
258 253 248 252 256 251 244 237 230 227 220 220 226 220 224 242 242 218 210 207 189 182 191 191 186 184 187 188 189 185 181 185 186 184 188 189 190 193 194 194 191 195 200 188 190 193 184 189 197 196 196 189 186 193 193 191 196 199 201 205 215 222 221 230 232 235 242 211 172 194 219 248 257 256 261 261 247 243 247 245 240 236 236 234 224 220 223 224
256 253 247 245 250 248 242 235 229 224 219 213 212 210 220 234 237 222 210 201 189 190 197 193 189 189 192 193 192 188 184 185 187 188 192 194 195 196 197 198 194 195 199 190 192 199 199 197 191 193 197 189 189 196 195 194 199 201 205 214 223 230 229 246 283 272 270 261 187 196 223 245 256 262 263 264 256 249 252 251 246 239 235 236 229 216 217 222
255 251 245 241 242 243 240 233 226 222 217 208 206 213 222 229 236 239 208 194 190 186 188 196 194 194 196 195 196 194 190 186 187 191 196 198 202 201 199 202 200 196 199 198 190 195 205 195 184 193 195 191 195 196 195 199 199 198 205 212 222 229 226 240 261 255 266 274 229 206 236 245 250 259 256 256 254 241 246 253 252 249 238 235 232 221 216 218
253 250 244 239 236 236 236 231 224 221 215 207 211 219 225 229 236 249 219 192 193 187 193 204 198 198 200 197 198 196 192 190 190 193 196 199 205 206 200 202 204 201 203 207 202 203 208 193 182 197 197 195 200 201 204 208 198 195 209 215 217 218 219 237 252 225 230 257 233 214 248 252 243 248 233 223 231 234 263 274 261 254 246 238 235 228 222 218
249 247 244 237 231 230 231 226 222 219 211 210 218 224 228 230 232 240 235 214 208 201 213 223 205 204 207 203 199 195 194 194 192 194 198 197 203 208 203 202 207 206 205 212 215 212 215 204 180 192 201 202 203 205 210 212 208 208 214 213 213 215 213 215 233 250 239 258 256 216 239 252 245 249 236 219 241 260 277 279 262 252 251 246 239 233 227 221
247 244 244 237 228 225 224 221 219 215 208 212 221 226 231 233 231 238 242 235 231 224 225 237 219 212 213 209 202 194 196 197 193 197 202 199 204 212 208 206 212 212 207 211 217 212 216 220 189 186 203 205 200 204 209 209 211 215 217 212 214 225 225 202 218 255 260 272 279 224 222 244 231 222 266 264 265 273 274 271 258 251 252 249 244 237 230 223
246 241 241 235 225 220 216 216 216 211 208 215 221 224 231 234 232 238 243 238 232 227 227 234 229 217 213 212 208 196 197 201 198 201 205 203 206 211 210 208 209 211 206 207 215 210 209 221 205 181 200 206 200 203 210 209 207 209 210 208 206 212 221 215 220 242 257 277 286 255 255 254 179 175 296 288 280 277 267 262 253 248 253 249 241 237 232 227
246 242 241 233 222 216 211 211 213 211 211 219 224 226 231 233 233 237 242 243 237 230 224 220 218 222 215 211 212 202 199 203 203 203 205 206 208 212 215 213 208 209 207 202 208 208 203 214 210 185 194 206 205 206 211 212 207 206 208 209 209 205 210 225 222 212 231 259 267 273 281 280 141 297 303 311 305 285 257 252 249 242 251 249 236 230 229 229
240 234 236 229 219 214 209 207 211 213 214 222 227 229 232 233 234 235 238 243 244 237 229 223 216 216 216 211 212 205 199 202 205 206 207 209 213 217 220 217 211 212 211 204 206 208 203 208 213 205 199 205 208 210 213 211 205 207 213 216 218 215 215 233 239 198 204 239 249 262 277 274 262 279 297 317 317 290 250 246 243 235 246 249 239 226 219 224
234 227 228 223 215 211 204 199 210 216 216 223 227 229 234 234 232 233 235 239 245 242 235 232 223 216 216 213 211 205 201 204 207 209 212 213 216 218 218 215 208 206 206 203 205 209 206 206 212 211 202 203 210 216 220 219 210 210 217 221 222 223 224 237 250 223 216 235 237 244 263 261 249 259 287 316 319 281 243 243 251 256 254 245 242 234 224 222
235 229 225 217 211 209 200 196 214 221 219 226 230 231 236 235 230 230 232 235 237 234 232 234 228 219 216 212 208 201 199 205 208 210 213 214 217 221 220 215 210 204 202 202 206 211 209 206 207 206 197 199 209 217 220 219 218 219 221 223 223 224 225 233 239 231 237 241 234 248 269 265 252 280 294 308 311 263 240 248 259 258 245 232 235 238 234 231
233 231 225 216 210 208 202 201 209 214 219 228 231 231 234 237 233 229 228 232 234 228 225 227 223 219 217 211 206 198 195 197 201 204 207 208 216 222 220 216 214 211 208 207 211 215 211 206 206 207 205 202 208 213 212 212 216 221 222 222 222 221 221 226 228 228 237 238 229 240 260 271 292 305 300 295 289 255 243 257 260 243 234 234 236 238 236 233
223 221 217 212 212 212 209 210 209 207 217 227 229 232 232 232 234 230 226 231 234 229 225 224 220 219 220 213 207 204 202 197 194 200 202 202 210 215 214 214 215 214 213 212 211 211 211 210 211 214 217 220 222 218 214 213 214 215 217 220 220 219 221 225 231 235 237 236 235 240 251 266 280 289 287 276 271 260 254 260 257 240 233 237 239 242 241 234
214 213 210 205 208 213 216 219 216 214 221 224 225 232 232 228 232 231 226 227 231 230 227 226 222 219 219 214 208 209 207 204 204 204 199 199 206 209 208 210 213 214 213 210 205 204 209 213 216 219 223 229 234 227 220 221 222 221 220 221 219 218 219 222 228 237 238 240 248 245 243 256 270 277 275 267 268 268 263 259 255 249 244 242 242 244 242 238
211 213 213 206 202 204 211 219 219 218 221 224 226 231 230 226 226 225 224 226 229 231 228 227 226 220 212 206 204 204 205 207 209 207 202 202 205 204 203 207 212 214 211 207 204 205 211 217 220 222 224 228 233 234 232 230 230 230 228 222 218 217 221 224 227 235 240 243 252 253 244 254 269 274 270 270 275 275 270 264 262 261 258 253 251 251 248 245
212 213 215 211 209 209 213 220 221 221 224 226 229 232 229 225 222 219 221 225 229 231 225 217 222 222 213 204 202 201 205 207 206 205 204 205 205 202 202 207 213 213 211 211 212 212 214 220 223 220 219 226 231 235 237 231 227 229 227 220 216 218 223 225 224 234 241 241 246 255 259 265 272 275 275 278 282 282 279 276 268 262 258 254 251 251 252 253
218 215 215 214 215 217 219 222 220 220 225 227 229 234 232 229 225 219 218 217 220 227 224 218 222 223 217 210 206 204 207 206 202 205 204 203 205 204 202 211 218 214 211 212 214 215 217 222 225 218 212 223 231 233 231 224 220 221 217 212 211 210 214 217 220 233 242 244 250 258 266 272 275 278 280 282 284 284 284 280 267 254 252 250 247 247 250 254
225 218 217 215 217 219 219 222 218 215 222 225 224 229 231 230 229 223 220 221 221 224 225 223 224 224 222 221 217 212 212 208 206 212 210 206 207 204 200 209 217 210 207 207 208 209 212 217 220 215 212 220 227 225 216 209 213 214 207 203 203 203 210 218 224 235 242 248 256 262 269 272 270 274 282 286 286 284 281 276 262 248 245 245 245 246 248 252
236 224 221 218 219 220 218 220 218 212 218 225 223 224 227 228 227 224 221 224 225 225 226 226 224 222 222 225 223 220 219 215 213 216 216 213 214 210 204 207 211 207 203 209 210 203 204 211 210 209 217 220 211 206 199 197 209 217 212 210 210 210 215 220 227 239 246 246 249 255 263 269 269 275 285 290 287 282 277 269 257 245 242 243 244 245 248 250
Height
3178 3178 3177 3177 3177 3176 3176 3176 3175 3175 3174 3174 3173 3172 3172 3171 3170 3170 3169 3168 3167 3166 3166 3166 3166 3167 3168 3169 3170 3171 3173 3174 3175 3176 3177 3179 3180 3181 3182 3184 3186 3187 3188 3189 3190 3191 3192 3193 3194 3195 3196 3196 3196 3196 3197 3198 3198 3198 3199 3198 3197 3199 3200 3202 3204 3204 3205 3206 3206 3207 3208 3207 3207 3207 3207 3208 3208 3207 3207 3207 3208 3208 3208 3209 3210 3211 3211 3210
3177 3176 3176 3175 3175 3175 3175 3174 3174 3173 3173 3172 3171 3170 3170 3169 3168 3167 3166 3165 3165 3164 3164 3164 3165 3165 3166 3167 3168 3169 3171 3172 3173 3174 3176 3177 3178 3180 3181 3183 3185 3186 3187 3189 3190 3191 3192 3193 3194 3195 3196 3196 3197 3197 3198 3198 3198 3199 3200 3198 3199 3200 3201 3203 3205 3205 3206 3206 3207 3208 3209 3208 3208 3208 3208 3209 3208 3208 3207 3207 3208 3208 3209 3209 3210 3211 3212 3211
3176 3175 3175 3174 3174 3173 3173 3173 3172 3172 3171 3170 3169 3169 3168 3167 3166 3165 3164 3163 3163 3162 3162 3162 3163 3163 3164 3164 3166 3167 3169 3170 3171 3173 3174 3175 3177 3178 3180 3182 3184 3185 3187 3188 3189 3190 3192 3193 3194 3195 3196 3197 3198 3198 3199 3199 3199 3200 3200 3200 3201 3202 3202 3203 3205 3205 3206 3207 3208 3209 3209 3209 3208 3208 3209 3210 3209 3209 3208 3208 3208 3209 3209 3210 3210 3211 3212 3212
3175 3174 3173 3173 3172 3172 3171 3171 3170 3170 3169 3168 3168 3167 3166 3165 3164 3163 3162 3162 3161 3161 3160 3161 3161 3161 3162 3162 3164 3165 3167 3169 3170 3171 3172 3174 3175 3177 3179 3181 3183 3185 3186 3188 3189 3190 3192 3193 3194 3195 3196 3198 3199 3199 3200 3200 3200 3201 3200 3201 3202 3203 3204 3203 3204 3206 3207 3208 3209 3209 3209 3209 3209 3209 3210 3211 3211 3211 3209 3208 3209 3209 3210 3211 3210 3211 3212 3212
3174 3173 3172 3171 3171 3170 3170 3169 3169 3168 3167 3167 3166 3165 3164 3163 3162 3161 3161 3160 3160 3159 3159 3160 3160 3160 3160 3161 3162 3163 3166 3168 3168 3169 3171 3172 3174 3176 3178 3180 3182 3184 3186 3187 3189 3190 3192 3193 3194 3195 3197 3199 3199 3199 3201 3200 3200 3201 3201 3202 3203 3204 3205 3204 3205 3206 3207 3208 3209 3210 3210 3210 3209 3209 3209 3210 3211 3211 3209 3209 3209 3209 3210 3211 3211 3212 3213 3213
3173 3172 3171 3170 3169 3169 3168 3168 3167 3166 3166 3165 3165 3163 3162 3162 3160 3160 3159 3159 3158 3158 3158 3159 3159 3159 3159 3160 3161 3162 3165 3166 3166 3167 3169 3171 3173 3175 3177 3179 3181 3183 3185 3187 3188 3190 3192 3193 3195 3196 3198 3199 3200 3200 3201 3200 3201 3202 3203 3203 3204 3205 3205 3205 3206 3206 3208 3209 3210 3210 3210 3210 3210 3209 3209 3209 3209 3209 3209 3209 3209 3209 3210 3212 3212 3213 3213 3213
3172 3171 3170 3169 3168 3167 3167 3166 3166 3165 3164 3164 3163 3162 3161 3160 3159 3159 3158 3158 3157 3157 3157 3157 3157 3158 3158 3159 3160 3161 3163 3164 3164 3166 3168 3170 3172 3174 3176 3179 3181 3182 3184 3186 3188 3190 3192 3193 3195 3197 3198 3199 3200 3201 3201 3201 3202 3203 3203 3203 3204 3205 3206 3206 3206 3208 3209 3209 3210 3210 3211 3211 3210 3209 3209 3208 3208 3208 3209 3209 3210 3210 3210 3211 3212 3213 3214 3214
3170 3169 3168 3168 3167 3166 3165 3165 3164 3164 3163 3162 3161 3160 3160 3159 3158 3157 3157 3156 3156 3155 3155 3156 3156 3156 3157 3158 3159 3160 3162 3163 3164 3166 3167 3169 3171 3173 3175 3178 3180 3182 3184 3186 3188 3190 3192 3194 3195 3196 3198 3199 3199 3200 3201 3202 3203 3204 3204 3204 3205 3205 3206 3207 3207 3209 3209 3209 3210 3210 3210 3210 3210 3210 3210 3209 3209 3209 3209 3210 3210 3211 3211 3212 3212 3213 3214 3215
3169 3168 3167 3166 3165 3165 3164 3164 3163 3163 3162 3161 3160 3159 3158 3158 3157 3156 3156 3155 3154 3154 3154 3154 3154 3154 3155 3156 3158 3159 3161 3162 3164 3165 3167 3169 3171 3172 3175 3177 3179 3181 3183 3185 3187 3189 3192 3194 3194 3195 3197 3198 3199 3200 3201 3202 3203 3203 3204 3204 3205 3206 3207 3207 3209 3210 3210 3210 3211 3210 3209 3210 3210 3210 3210 3210 3210 3210 3210 3211 3211 3212 3212 3213 3213 3214 3215 3216
3168 3167 3166 3165 3164 3163 3163 3162 3162 3161 3161 3160 3159 3158 3157 3157 3156 3156 3155 3154 3153 3153 3152 3152 3152 3153 3154 3155 3157 3159 3160 3161 3163 3164 3167 3168 3170 3172 3174 3177 3179 3181 3184 3185 3187 3189 3192 3193 3193 3194 3196 3198 3199 3200 3201 3203 3203 3203 3204 3205 3206 3206 3207 3208 3210 3211 3210 3211 3211 3211 3210 3210 3211 3211 3211 3211 3211 3211 3211 3212 3212 3213 3213 3214 3214 3215 3216 3216
3167 3165 3164 3163 3163 3162 3162 3161 3161 3160 3159 3159 3158 3157 3156 3156 3155 3155 3154 3153 3153 3152 3151 3150 3151 3151 3153 3154 3156 3158 3159 3161 3162 3164 3166 3168 3169 3171 3174 3177 3179 3181 3183 3185 3187 3189 3191 3192 3193 3195 3197 3198 3199 3200 3201 3202 3203 3203 3204 3204 3206 3207 3208 3209 3210 3211 3211 3211 3212 3211 3211 3211 3212 3213 3212 3211 3212 3212 3212 3213 3213 3214 3214 3214 3215 3216 3216 3217
3165 3164 3163 3162 3161 3160 3160 3160 3160 3159 3158 3158 3157 3156 3155 3155 3154 3154 3153 3153 3152 3152 3151 3150 3150 3150 3152 3154 3155 3156 3158 3160 3162 3164 3166 3167 3168 3171 3173 3176 3178 3180 3183 3185 3187 3188 3191 3192 3193 3195 3196 3198 3199 3200 3201 3202 3203 3204 3205 3205 3206 3208 3209 3210 3211 3211 3211 3211 3212 3212 3212 3213 3214 3213 3212 3212 3212 3213 3213 3213 3214 3214 3215 3215 3216 3216 3217 3218
3164 3163 3162 3161 3160 3159 3159 3159 3158 3158 3157 3156 3156 3155 3154 3154 3154 3153 3153 3153 3152 3151 3151 3150 3150 3150 3152 3153 3154 3155 3157 3160 3162 3164 3166 3167 3169 3171 3173 3175 3178 3180 3182 3185 3187 3189 3191 3192 3193 3194 3195 3197 3198 3199 3200 3202 3203 3205 3206 3207 3207 3209 3209 3211 3211 3211 3212 3211 3212 3212 3213 3215 3215 3213 3213 3213 3213 3213 3214 3214 3214 3215 3216 3216 3217 3217 3217 3218
3162 3161 3160 3159 3158 3158 3157 3157 3157 3157 3156 3155 3155 3154 3154 3153 3153 3153 3152 3152 3152 3152 3151 3150 3150 3151 3151 3152 3153 3155 3157 3159 3161 3163 3165 3167 3169 3171 3173 3175 3178 3180 3182 3184 3186 3188 3191 3192 3193 3194 3195 3196 3197 3199 3200 3202 3203 3205 3207 3207 3207 3208 3209 3210 3211 3211 3212 3212 3212 3212 3214 3215 3215 3214 3214 3213 3213 3214 3215 3215 3215 3215 3216 3216 3217 3217 3218 3218
3161 3160 3159 3158 3157 3156 3156 3156 3156 3155 3155 3154 3154 3153 3153 3152 3152 3152 3152 3152 3152 3152 3151 3151 3151 3151 3152 3153 3153 3155 3157 3159 3161 3163 3165 3167 3169 3171 3173 3175 3178 3180 3182 3184 3186 3188 3190 3192 3193 3195 3195 3196 3198 3200 3201 3202 3204 3205 3205 3206 3207 3208 3208 3210 3210 3211 3213 3212 3212 3213 3214 3216 3215 3214 3215 3214 3214 3215 3216 3216 3216 3216 3216 3217 3217 3218 3218 3218
3159 3158 3157 3156 3155 3155 3155 3154 3154 3154 3154 3153 3153 3152 3152 3152 3151 3151 3151 3151 3152 3152 3151 3151 3151 3152 3153 3154 3153 3155 3157 3158 3160 3162 3165 3167 3169 3171 3173 3176 3178 3180 3182 3184 3186 3188 3190 3192 3193 3194 3195 3197 3199 3200 3201 3202 3203 3204 3203 3204 3206 3207 3208 3210 3210 3211 3212 3213 3213 3214 3215 3216 3215 3215 3215 3215 3214 3215 3217 3217 3216 3217 3217 3217 3218 3218 3219 3219
3158 3157 3156 3155 3154 3154 3153 3153 3153 3153 3152 3152 3152 3151 3151 3151 3151 3150 3151 3151 3151 3151 3152 3152 3152 3152 3153 3153 3154 3155 3156 3158 3160 3162 3164 3166 3168 3171 3173 3176 3178 3180 3182 3184 3186 3188 3190 3192 3192 3194 3195 3197 3199 3199 3200 3199 3200 3202 3202 3202 3205 3206 3207 3208 3209 3210 3211 3212 3214 3214 3215 3216 3215 3215 3215 3216 3215 3215 3216 3217 3217 3217 3217 3218 3218 3218 3219 3219
3156 3155 3154 3153 3153 3152 3152 3152 3152 3151 3151 3151 3150 3150 3150 3150 3150 3150 3150 3150 3151 3151 3152 3151 3152 3153 3153 3152 3153 3155 3155 3158 3160 3161 3164 3166 3168 3170 3173 3176 3178 3180 3182 3184 3186 3188 3190 3192 3193 3194 3195 3196 3197 3197 3197 3196 3198 3200 3200 3201 3203 3205 3206 3207 3208 3209 3210 3212 3213 3214 3215 3215 3214 3215 3215 3216 3216 3215 3216 3217 3217 3217 3217 3218 3218 3218 3219 3219
3154 3154 3153 3152 3151 3151 3151 3150 3150 3150 3150 3149 3149 3149 3149 3149 3149 3149 3149 3149 3150 3151 3151 3151 3151 3152 3153 3152 3152 3153 3155 3157 3159 3161 3163 3165 3168 3170 3173 3176 3178 3180 3183 3184 3186 3188 3190 3191 3192 3193 3194 3194 3195 3196 3195 3195 3196 3198 3199 3200 3202 3203 3205 3206 3208 3208 3209 3211 3213 3213 3214 3214 3214 3214 3215 3216 3216 3216 3215 3216 3217 3217 3218 3218 3218 3218 3219 3219
3152 3152 3151 3150 3150 3149 3149 3149 3149 3149 3148 3148 3148 3148 3148 3148 3148 3148 3147 3148 3149 3149 3150 3150 3150 3151 3151 3151 3152 3153 3155 3157 3159 3161 3163 3165 3168 3170 3173 3176 3178 3181 3183 3185 3186 3187 3188 3190 3191 3191 3192 3193 3194 3195 3195 3195 3196 3197 3199 3199 3200 3201 3203 3205 3207 3207 3208 3210 3211 3212 3213 3214 3214 3214 3214 3215 3216 3216 3216 3215 3216 3217 3217 3218 3218 3219 3219 3219
3150 3150 3149 3149 3148 3147 3147 3148 3148 3148 3147 3147 3146 3147 3147 3147 3148 3147 3146 3147 3148 3148 3149 3149 3150 3150 3150 3150 3151 3153 3155 3157 3159 3161 3162 3165 3168 3170 3173 3175 3178 3180 3182 3184 3185 3186 3187 3188 3189 3190 3191 3192 3193 3194 3195 3195 3196 3197 3198 3199 3199 3200 3201 3204 3205 3206 3207 3209 3210 3210 3212 3213 3213 3213 3214 3214 3215 3216 3216 3215 3215 3216 3217 3218 3218 3218 3219 3219
3148 3147 3147 3147 3146 3146 3146 3146 3146 3147 3146 3146 3145 3145 3146 3146 3146 3145 3145 3145 3146 3147 3147 3148 3149 3148 3148 3149 3150 3152 3154 3156 3158 3159 3161 3164 3167 3170 3172 3174 3177 3179 3180 3183 3183 3185 3187 3187 3187 3189 3190 3191 3192 3193 3194 3195 3196 3197 3197 3198 3198 3199 3200 3202 3203 3204 3205 3208 3209 3209 3211 3213 3212 3212 3213 3213 3214 3215 3215 3215 3215 3215 3216 3217 3217 3218 3218 3218
3146 3145 3145 3145 3145 3144 3144 3144 3145 3145 3145 3144 3144 3143 3144 3144 3145 3145 3144 3144 3144 3145 3145 3147 3147 3147 3147 3148 3149 3151 3153 3155 3157 3158 3161 3163 3166 3169 3171 3173 3176 3178 3179 3181 3182 3183 3184 3185 3186 3187 3188 3190 3191 3193 3194 3195 3195 3196 3196 3196 3196 3197 3199 3201 3201 3203 3203 3206 3208 3208 3210 3211 3210 3210 3211 3211 3213 3213 3214 3214 3214 3214 3215 3216 3217 3217 3217 3218
3143 3143 3143 3143 3143 3142 3142 3143 3143 3144 3144 3143 3143 3142 3142 3143 3143 3144 3143 3143 3143 3143 3144 3145 3146 3146 3146 3147 3148 3150 3153 3155 3157 3158 3160 3163 3165 3167 3170 3173 3176 3177 3178 3179 3181 3182 3183 3183 3184 3185 3187 3189 3191 3192 3193 3194 3194 3195 3195 3195 3195 3196 3198 3199 3200 3201 3202 3204 3205 3206 3208 3209 3208 3208 3209 3210 3211 3211 3212 3213 3213 3213 3213 3214 3215 3216 3216 3217
3140 3140 3140 3140 3141 3141 3140 3141 3141 3142 3143 3143 3142 3140 3140 3141 3142 3143 3142 3142 3141 3141 3142 3143 3144 3145 3145 3146 3148 3150 3153 3155 3157 3158 3159 3162 3165 3167 3169 3172 3174 3176 3177 3178 3180 3181 3181 3181 3182 3184 3186 3188 3190 3191 3192 3193 3192 3193 3194 3194 3194 3195 3197 3198 3198 3200 3202 3202 3203 3205 3206 3206 3206 3207 3208 3208 3208 3209 3210 3211 3212 3212 3212 3212 3213 3214 3215 3216
3138 3138 3138 3138 3139 3139 3139 3139 3140 3141 3141 3142 3141 3140 3139 3139 3141 3142 3142 3142 3141 3139 3140 3141 3143 3144 3144 3146 3147 3150 3153 3154 3155 3157 3159 3161 3163 3166 3169 3170 3172 3174 3176 3177 3179 3179 3179 3179 3181 3183 3185 3187 3189 3190 3191 3191 3191 3190 3191 3193 3194 3194 3196 3196 3196 3198 3200 3200 3200 3202 3203 3203 3204 3206 3206 3206 3206 3207 3208 3209 3210 3210 3210 3211 3211 3212 3213 3214
3135 3135 3135 3136 3137 3137 3137 3137 3138 3139 3140 3140 3140 3139 3138 3138 3140 3141 3142 3142 3138 3137 3138 3139 3141 3142 3143 3145 3146 3149 3152 3152 3153 3155 3157 3160 3162 3164 3167 3169 3170 3171 3173 3176 3177 3176 3176 3178 3180 3182 3184 3186 3187 3188 3189 3190 3190 3188 3189 3191 3192 3193 3195 3195 3196 3196 3197 3198 3199 3200 3202 3202 3202 3203 3203 3203 3203 3204 3205 3206 3207 3208 3208 3209 3210 3210 3211 3212
3133 3132 3133 3134 3134 3135 3136 3135 3136 3137 3138 3139 3139 3139 3138 3138 3138 3140 3142 3140 3135 3134 3136 3137 3139 3141 3143 3144 3146 3149 3150 3149 3152 3154 3156 3159 3161 3164 3167 3168 3170 3171 3171 3173 3174 3174 3175 3177 3178 3180 3183 3184 3185 3185 3186 3188 3189 3188 3188 3190 3190 3192 3194 3195 3195 3195 3196 3198 3198 3199 3202 3201 3200 3200 3201 3201 3202 3202 3201 3202 3204 3205 3206 3207 3208 3208 3209 3210
3130 3130 3130 3132 3132 3133 3133 3134 3134 3135 3136 3138 3139 3138 3137 3137 3137 3139 3141 3138 3133 3133 3135 3136 3138 3140 3141 3144 3145 3148 3149 3150 3152 3153 3154 3158 3159 3162 3165 3167 3169 3171 3171 3171 3172 3173 3174 3176 3177 3179 3182 3182 3183 3184 3185 3187 3188 3188 3188 3189 3190 3192 3194 3195 3195 3195 3197 3197 3195 3197 3201 3200 3196 3196 3199 3199 3199 3198 3198 3199 3200 3202 3204 3205 3206 3206 3207 3208
3128 3127 3128 3129 3130 3131 3131 3132 3132 3133 3135 3136 3137 3138 3137 3137 3136 3137 3138 3135 3132 3133 3133 3135 3137 3138 3140 3143 3145 3146 3148 3150 3151 3151 3154 3157 3159 3161 3163 3165 3168 3170 3170 3171 3172 3172 3172 3174 3176 3178 3179 3180 3181 3183 3184 3185 3187 3187 3189 3190 3191 3192 3194 3195 3195 3196 3197 3195 3192 3194 3198 3199 3194 3192 3195 3196 3195 3196 3196 3197 3197 3198 3200 3202 3203 3204 3205 3205
3125 3125 3125 3126 3128 3129 3129 3130 3130 3131 3133 3134 3136 3137 3137 3136 3136 3135 3133 3132 3131 3132 3132 3134 3135 3136 3139 3141 3143 3145 3147 3149 3150 3151 3153 3155 3158 3160 3161 3163 3165 3167 3170 3170 3171 3171 3172 3174 3175 3176 3177 3178 3180 3182 3183 3185 3186 3187 3189 3190 3191 3192 3194 3194 3195 3196 3195 3190 3190 3192 3195 3198 3194 3190 3192 3194 3194 3194 3195 3196 3196 3195 3197 3198 3200 3201 3202 3203
3122 3122 3122 3124 3125 3126 3127 3127 3128 3129 3131 3132 3134 3136 3136 3136 3135 3132 3130 3130 3130 3131 3132 3133 3134 3135 3138 3140 3142 3144 3146 3148 3149 3150 3152 3153 3156 3157 3159 3161 3162 3164 3166 3167 3169 3170 3172 3173 3173 3174 3176 3178 3180 3181 3182 3184 3186 3187 3189 3189 3189 3190 3192 3192 3191 3192 3190 3187 3189 3192 3193 3194 3191 3190 3191 3192 3192 3192 3192 3194 3194 3194 3194 3195 3197 3199 3200 3201
3120 3119 3120 3121 3123 3124 3125 3125 3126 3128 3129 3131 3132 3134 3136 3135 3131 3128 3128 3129 3129 3129 3131 3132 3133 3135 3138 3140 3141 3143 3145 3146 3147 3150 3152 3153 3155 3157 3158 3159 3160 3161 3162 3164 3166 3168 3170 3172 3172 3173 3175 3176 3178 3180 3181 3183 3184 3186 3187 3187 3186 3186 3189 3190 3188 3187 3187 3186 3188 3191 3191 3190 3188 3188 3188 3189 3190 3190 3190 3191 3191 3192 3192 3192 3194 3196 3197 3198
3117 3117 3117 3118 3120 3122 3123 3124 3125 3126 3127 3129 3130 3133 3135 3133 3128 3127 3128 3128 3128 3129 3130 3131 3133 3135 3137 3138 3140 3141 3143 3145 3146 3149 3151 3152 3154 3155 3156 3157 3158 3160 3161 3162 3163 3164 3165 3168 3170 3171 3172 3174 3176 3178 3180 3181 3183 3184 3184 3185 3184 3183 3185 3185 3183 3182 3182 3183 3187 3190 3190 3187 3185 3185 3185 3186 3187 3187 3188 3188 3189 3189 3190 3190 3190 3192 3194 3195
3114 3114 3115 3116 3117 3119 3121 3122 3123 3124 3125 3127 3129 3131 3131 3129 3127 3126 3126 3127 3127 3129 3129 3130 3132 3134 3136 3137 3138 3139 3141 3143 3145 3147 3148 3150 3151 3151 3153 3154 3155 3158 3159 3160 3161 3162 3163 3164 3166 3169 3170 3172 3175 3177 3178 3180 3181 3182 3183 3184 3182 3181 3182 3182 3181 3181 3181 3181 3184 3187 3186 3185 3184 3183 3183 3184 3185 3185 3186 3186 3186 3187 3187 3187 3188 3189 3190 3191
3111 3111 3112 3113 3115 3116 3118 3120 3121 3122 3123 3125 3127 3127 3126 3126 3126 3125 3125 3125 3126 3127 3128 3129 3131 3133 3134 3135 3137 3138 3139 3141 3143 3145 3146 3148 3149 3149 3151 3153 3154 3156 3158 3158 3159 3161 3162 3162 3164 3167 3169 3171 3173 3175 3176 3178 3178 3179 3181 3181 3180 3180 3182 3182 3182 3183 3184 3182 3180 3182 3183 3182 3182 3181 3181 3182 3183 3183 3184 3184 3184 3184 3184 3184 3185 3185 3186 3187
3109 3108 3109 3111 3112 3114 3115 3117 3119 3120 3121 3123 3124 3123 3123 3124 3124 3124 3124 3124 3125 3126 3127 3128 3128 3129 3131 3132 3134 3136 3138 3139 3140 3142 3144 3145 3146 3147 3149 3151 3152 3154 3156 3157 3159 3160 3161 3161 3162 3166 3167 3168 3171 3173 3174 3175 3176 3178 3179 3178 3179 3181 3182 3183 3181 3181 3183 3180 3176 3178 3180 3179 3178 3178 3179 3180 3181 3181 3182 3182 3182 3181 3181 3181 3182 3183 3184 3185
3106 3106 3106 3108 3109 3111 3113 3115 3117 3118 3119 3120 3120 3120 3120 3121 3122 3122 3122 3123 3123 3124 3125 3126 3126 3127 3128 3129 3130 3133 3135 3136 3138 3139 3141 3142 3143 3144 3147 3149 3150 3152 3155 3157 3158 3159 3159 3159 3160 3164 3166 3166 3169 3171 3172 3173 3175 3176 3176 3176 3178 3179 3179 3181 3181 3178 3178 3175 3172 3174 3177 3177 3176 3176 3177 3179 3180 3180 3180 3179 3179 3179 3179 3179 3179 3180 3181 3183
3104 3104 3104 3105 3107 3109 3111 3112 3114 3116 3117 3117 3117 3117 3117 3118 3120 3120 3121 3121 3122 3123 3124 3125 3124 3125 3126 3127 3128 3131 3132 3133 3135 3137 3138 3139 3140 3142 3144 3147 3148 3150 3153 3155 3157 3158 3158 3157 3158 3161 3164 3165 3167 3169 3169 3171 3172 3174 3175 3176 3177 3176 3176 3177 3178 3176 3175 3173 3170 3171 3173 3173 3173 3175 3177 3178 3179 3179 3178 3177 3177 3177 3177 3177 3177 3177 3179 3181
3101 3102 3102 3103 3104 3106 3108 3110 3112 3113 3113 3114 3115 3115 3114 3116 3118 3119 3119 3120 3120 3121 3122 3123 3123 3124 3125 3125 3127 3128 3130 3131 3133 3135 3136 3137 3138 3139 3141 3144 3146 3148 3150 3153 3155 3156 3158 3157 3157 3159 3161 3163 3164 3165 3166 3168 3170 3172 3173 3174 3174 3175 3175 3175 3176 3175 3175 3173 3171 3171 3170 3168 3170 3174 3176 3177 3177 3177 3176 3176 3176 3176 3176 3175 3175 3176 3177 3179
3099 3100 3100 3100 3102 3104 3106 3108 3109 3110 3111 3112 3113 3113 3112 3113 3116 3117 3118 3118 3118 3119 3120 3121 3121 3122 3123 3124 3125 3126 3128 3130 3131 3133 3134 3135 3136 3137 3138 3141 3143 3145 3147 3150 3152 3154 3155 3156 3156 3157 3160 3161 3162 3162 3164 3165 3167 3168 3170 3170 3171 3173 3174 3173 3171 3173 3175 3174 3172 3172 3170 3168 3170 3173 3174 3175 3175 3175 3175 3175 3175 3175 3175 3174 3174 3175 3175 3177
3097 3098 3098 3098 3100 3101 3103 3105 3106 3107 3109 3110 3110 3110 3110 3111 3114 3115 3116 3117 3117 3118 3118 3118 3119 3120 3121 3123 3124 3124 3126 3127 3129 3130 3131 3132 3134 3136 3137 3138 3141 3143 3145 3148 3149 3151 3153 3155 3155 3156 3157 3158 3159 3160 3162 3163 3164 3166 3167 3167 3168 3169 3171 3170 3168 3170 3173 3173 3173 3174 3171 3168 3169 3172 3172 3173 3173 3173 3173 3174 3174 3174 3174 3174 3174 3174 3174 3175
3094 3095 3095 3096 3098 3099 3101 3103 3104 3104 3106 3107 3107 3107 3108 3109 3111 3113 3114 3115 3116 3117 3117 3117 3118 3119 3120 3121 3121 3122 3124 3125 3127 3128 3130 3131 3133 3134 3135 3136 3139 3141 3143 3146 3147 3148 3151 3152 3153 3154 3156 3157 3157 3159 3160 3161 3162 3164 3164 3165 3165 3166 3167 3167 3166 3168 3170 3171 3172 3172 3169 3167 3167 3169 3170 3170 3171 3172 3172 3172 3172 3172 3172 3173 3173 3173 3173 3174
3092 3093 3093 3094 3096 3097 3099 3101 3102 3103 3104 3104 3105 3106 3106 3107 3108 3111 3112 3113 3114 3115 3115 3116 3117 3117 3118 3118 3119 3120 3122 3123 3124 3126 3128 3130 3131 3131 3133 3135 3137 3139 3141 3143 3144 3145 3147 3149 3150 3151 3153 3155 3156 3157 3157 3158 3160 3161 3162 3163 3163 3164 3166 3166 3166 3168 3168 3168 3170 3169 3166 3165 3165 3167 3168 3169 3169 3170 3170 3171 3171 3171 3171 3171 3171 3172 3172 3172
3090 3091 3092 3093 3094 3094 3096 3098 3100 3101 3102 3102 3103 3104 3105 3105 3106 3108 3109 3111 3111 3113 3113 3114 3115 3115 3116 3116 3117 3119 3120 3121 3123 3124 3126 3127 3128 3129 3131 3133 3135 3137 3139 3140 3141 3142 3144 3145 3146 3147 3147 3148 3150 3151 3152 3154 3157 3158 3159 3160 3161 3162 3164 3164 3165 3167 3166 3166 3168 3168 3165 3164 3165 3166 3167 3167 3168 3169 3169 3169 3169 3169 3169 3169 3169 3170 3170 3170
3088 3089 3090 3091 3092 3092 3093 3095 3096 3099 3100 3100 3101 3102 3103 3104 3105 3105 3107 3108 3109 3110 3111 3112 3113 3114 3115 3115 3116 3118 3119 3120 3121 3122 3124 3126 3126 3127 3129 3131 3132 3134 3136 3137 3139 3141 3142 3142 3143 3144 3144 3144 3146 3147 3149 3152 3153 3154 3155 3156 3157 3159 3161 3162 3163 3164 3164 3164 3165 3165 3165 3164 3164 3165 3167 3166 3166 3167 3167 3167 3167 3167 3168 3167 3168 3168 3167 3168
3085 3086 3087 3089 3090 3091 3092 3093 3094 3096 3097 3098 3100 3100 3101 3103 3103 3104 3105 3106 3107 3108 3110 3111 3112 3113 3114 3115 3116 3117 3118 3119 3120 3121 3123 3125 3125 3125 3127 3129 3130 3131 3133 3135 3137 3138 3139 3140 3140 3142 3143 3144 3144 3145 3147 3150 3150 3151 3153 3154 3155 3156 3158 3159 3160 3160 3162 3162 3162 3162 3163 3163 3163 3164 3165 3165 3165 3165 3165 3165 3165 3165 3165 3165 3165 3165 3165 3165
3083 3084 3085 3086 3087 3088 3089 3090 3091 3092 3094 3096 3097 3098 3099 3101 3102 3102 3103 3104 3105 3106 3108 3110 3110 3111 3112 3113 3114 3115 3116 3118 3119 3120 3122 3123 3123 3124 3125 3127 3127 3129 3131 3133 3134 3136 3137 3138 3138 3140 3141 3142 3143 3144 3145 3147 3149 3149 3150 3151 3152 3154 3155 3156 3157 3158 3159 3160 3159 3160 3161 3161 3161 3162 3163 3162 3162 3162 3162 3162 3162 3163 3163 3162 3162 3162 3162 3162
3081 3082 3083 3084 3085 3085 3086 3087 3088 3091 3092 3094 3095 3096 3098 3099 3100 3100 3101 3102 3103 3104 3106 3108 3108 3108 3110 3111 3112 3114 3115 3116 3117 3118 3120 3121 3122 3123 3124 3125 3126 3127 3128 3130 3131 3133 3135 3135 3136 3137 3139 3139 3140 3141 3143 3145 3146 3147 3148 3149 3150 3151 3152 3153 3155 3156 3156 3157 3158 3158 3158 3158 3159 3159 3159 3159 3158 3158 3158 3158 3159 3159 3159 3159 3159 3159 3159 3159
3080 3080 3081 3082 3083 3083 3084 3085 3087 3089 3090 3092 3093 3094 3095 3097 3098 3099 3100 3100 3101 3101 3103 3105 3106 3107 3109 3110 3111 3112 3113 3114 3115 3116 3117 3118 3120 3121 3123 3124 3125 3125 3126 3127 3129 3130 3132 3133 3134 3136 3137 3137 3137 3139 3141 3142 3143 3144 3145 3146 3148 3149 3150 3151 3152 3153 3153 3154 3155 3156 3156 3156 3156 3155 3155 3155 3155 3154 3154 3154 3154 3154 3155 3155 3155 3156 3156 3157
3078 3078 3079 3080 3081 3082 3083 3084 3086 3088 3089 3090 3091 3092 3093 3094 3096 3097 3098 3098 3099 3099 3100 3102 3103 3105 3107 3108 3109 3110 3111 3112 3113 3114 3115 3117 3118 3119 3121 3122 3123 3124 3125 3126 3127 3128 3130 3131 3132 3134 3135 3135 3136 3137 3138 3140 3142 3142 3143 3144 3145 3146 3147 3149 3149 3150 3151 3152 3153 3154 3154 3154 3154 3153 3152 3152 3151 3151 3151 3150 3150 3150 3151 3151 3152 3152 3153 3153
3076 3077 3077 3079 3079 3080 3082 3083 3084 3087 3087 3087 3088 3089 3091 3092 3094 3095 3097 3097 3097 3098 3098 3099 3101 3104 3105 3105 3106 3108 3109 3111 3112 3113 3114 3115 3117 3118 3119 3120 3121 3122 3124 3124 3125 3127 3128 3129 3130 3132 3132 3132 3135 3137 3138 3139 3139 3139 3140 3141 3142 3144 3145 3146 3147 3147 3148 3150 3151 3152 3152 3152 3152 3150 3149 3148 3148 3147 3146 3146 3146 3147 3147 3148 3148 3149 3150 3150